Hourly Data Report for July 28, 2021

CAMBRIDGE BAY A
NUNAVUT
Current Station Operator: NAVCAN

69°06'29.000" N
105°08'14.000" W
31.10 m
2400601
71925
YCB

Download Data

Hourly Data (July 2021)
Hourly Data Report for July 28, 2021
TIME
LST
Temp Definition
°C
Dew Point Definition
°C
Rel Hum Definition
%
Precip. Amount Definition
mm

Wind Dir Definition
10's deg

Wind Spd Definition
km/h
Visibility Definition
km
Stn Press Definition
kPa
Hmdx Definition


Wind Chill Definition


Weather Definition


00:00 5.6 3.4 86   32 19 24.1 100.48     LegendNANA
01:00 5.6 3.5 86   33 17 24.1 100.54     LegendNANA
02:00 5.0 3.1 87   31 17 24.1 100.58     Cloudy
03:00 4.8 2.7 86   32 20 24.1 100.60     LegendNANA
04:00 4.8 2.5 85   32 21 24.1 100.65     LegendNANA
05:00 5.0 2.3 83   32 19 24.1 100.68     Mostly Cloudy
06:00 5.4 1.3 75   33 18 24.1 100.69     LegendNANA
07:00 6.1 0.9 69   33 19 24.1 100.71     LegendNANA
08:00 7.0 0.6 63   33 20 24.1 100.71     Mostly Cloudy
09:00 7.4 0.1 60   33 18 24.1 100.71     LegendNANA
10:00 7.0 1.1 66   32 20 24.1 100.72     Rain Showers
11:00 7.8 0.0 58   30 26 24.1 100.73     Mostly Cloudy
12:00 8.6 -0.5 53   34 14 24.1 100.73     LegendNANA
13:00 7.1 1.3 66   26 22 24.1 100.75     LegendNANA
14:00 6.8 0.0 62   27 26 24.1 100.76     Mostly Cloudy
15:00 7.3 0.4 62   27 25 24.1 100.77     LegendNANA
16:00 7.6 0.9 63   27 23 24.1 100.76     LegendNANA
17:00 8.9 1.0 58   28 17 24.1 100.77     Mostly Cloudy
18:00 8.9 1.5 60   28 16 24.1 100.77     LegendNANA
19:00 7.9 1.4 64   27 16 24.1 100.77     LegendNANA
20:00 8.3 1.9 64   32 8 24.1 100.78     Mostly Cloudy
21:00 5.5 1.2 73   26 7 24.1 100.80     LegendNANA
22:00 6.9 2.9 76   34 5 24.1 100.83     LegendNANA
23:00 6.2 3.5 83   32 8 24.1 100.85     Mostly Cloudy

Notes on Data Quality.

Legend

  • E = Estimated
  • M = Missing
  • NA = Not Available*
  • [empty] = Indicates an unobserved value
Date modified: